Temperature
25 24 23 23 21 21 20 20 20 20 19 19 19 19 19 19 19 19 19 19 19 19 19 18 18 18 18 18 18 18 18 18 18 18 18 19 19 19 19 19 19 19 19
25 24 24 23 22 21 20 20 20 20 19 19 19 19 19 19 19 19 19 19 19 19 19 19 18 18 18 18 18 18 18 18 18 18 18 18 19 19 19 19 19 19 19
25 24 24 23 22 21 21 20 20 20 20 20 19 19 19 19 19 19 19 19 19 19 19 19 19 18 18 18 18 18 18 18 18 18 18 18 18 19 19 19 19 19 19
26 25 24 23 22 21 21 20 20 20 20 20 19 19 19 19 19 19 19 19 19 19 19 19 19 19 18 18 18 18 18 18 18 18 19 19 18 18 18 19 19 19 19
26 25 24 23 22 22 21 20 20 20 20 20 20 19 19 19 19 19 19 19 19 19 19 19 19 19 19 18 18 18 18 18 18 18 18 18 19 19 18 18 19 19 19
27 25 24 23 23 22 21 20 20 20 20 20 20 19 19 19 19 19 19 19 19 19 19 19 19 19 19 19 18 18 18 18 18 18 18 18 18 19 19 19 19 19 19
27 26 24 23 22 22 21 21 20 20 20 20 20 19 19 19 19 19 19 19 19 19 19 19 19 19 19 18 18 18 18 18 18 18 18 18 18 18 19 19 18 18 19
27 26 25 24 22 22 21 21 20 20 20 20 20 19 19 19 19 19 19 19 19 19 19 19 19 18 18 18 18 18 18 18 18 18 18 18 18 18 18 18 18 18 18
27 26 25 24 22 22 21 21 20 20 20 20 20 19 19 19 19 19 19 19 19 19 19 19 18 18 18 18 18 18 18 18 18 18 18 18 18 18 18 18 18 18 18
26 25 24 24 23 22 21 20 20 20 20 19 19 19 19 19 19 19 19 19 19 19 18 18 18 18 18 18 18 18 18 18 18 18 18 18 18 18 18 18 18 18 18
26 25 24 23 23 22 21 20 20 19 19 19 19 19 19 19 19 19 19 19 19 18 18 18 18 18 18 18 18 18 18 17 17 17 17 17 17 17 18 18 18 18 18
26 25 24 23 22 22 21 20 20 19 19 19 19 18 19 19 19 19 18 18 18 18 18 18 18 18 18 18 18 18 17 17 17 17 17 17 17 17 17 17 17 17 17
25 24 23 23 22 22 21 20 20 20 19 19 18 18 18 18 18 18 18 18 18 18 18 17 18 18 18 18 17 17 17 17 17 17 17 17 17 17 17 17 17 17 17
24 24 23 22 22 21 21 20 20 20 19 19 18 18 18 18 18 18 17 17 17 17 17 17 17 17 17 17 17 17 17 17 17 16 16 17 17 17 17 17 17 17 16
24 23 22 21 21 21 20 20 20 19 19 18 18 18 18 18 17 17 17 17 17 17 17 17 17 17 17 17 17 16 16 16 16 16 16 16 16 16 16 16 16 16 16
23 22 21 21 20 20 20 20 19 19 18 18 18 18 17 17 17 17 17 17 17 17 17 17 17 16 16 16 16 16 16 16 16 16 16 16 16 16 16 16 16 16 16
23 22 21 20 20 20 19 19 19 18 18 18 18 17 17 17 17 17 16 16 16 16 16 16 16 16 16 16 16 16 16 16 16 16 16 15 16 16 16 16 16 16 15
22 21 21 20 19 19 19 18 18 18 18 17 17 17 17 16 16 16 16 16 16 16 16 16 16 15 15 15 15 16 15 15 15 15 15 15 15 15 15 15 15 15 15
21 21 20 20 19 18 18 18 18 17 17 17 17 17 16 16 16 16 16 16 16 16 15 15 15 15 15 15 15 15 15 15 15 15 15 15 15 15 15 15 15 15 15
20 20 20 19 18 18 18 17 17 17 17 16 16 16 16 16 16 15 15 15 15 15 15 15 15 15 15 15 15 15 15 15 15 15 15 15 15 15 15 15 14 14 14
19 19 19 19 18 17 17 17 17 16 16 16 16 16 16 16 15 15 15 15 15 15 15 15 15 15 15 15 15 15 15 15 14 14 14 14 14 14 14 14 14 14 14
19 18 18 18 17 17 17 16 16 16 16 16 16 16 15 15 15 15 15 15 15 15 15 15 15 15 15 15 15 15 15 14 14 14 14 14 14 14 14 14 14 14 13
18 17 17 17 16 16 16 16 16 15 15 15 15 15 15 15 15 15 15 15 15 14 14 15 15 15 15 15 15 15 15 14 14 14 14 13 13 13 13 13 13 13 13
17 17 16 16 16 15 15 15 15 15 15 15 15 15 15 15 14 14 14 14 14 14 14 14 14 14 14 14 14 14 14 14 14 13 13 13 13 13 13 13 13 13 12
16 16 16 15 15 15 15 15 15 15 15 15 15 14 14 14 14 14 14 14 14 14 14 14 14 14 14 14 14 13 13 13 13 13 13 13 12 12 12 12 12 12 12
16 15 15 15 15 15 15 14 14 14 14 14 14 14 14 14 14 14 14 14 14 14 14 14 14 13 13 14 13 13 13 13 13 12 12 12 12 11 11 11 11 12 11
Wind_Speed
10 9 9 11 11 9 8 6 4 4 3 2 2 3 3 3 3 3 5 6 5 5 4 3 4 4 4 5 4 4 3 3 2 2 2 2 3 4 4 4 3 4 6
11 9 9 10 11 10 8 7 5 5 4 3 2 2 2 2 3 3 4 6 6 5 5 4 4 4 4 4 4 4 3 3 3 2 1 1 2 3 5 4 5 5 4
13 11 10 9 9 10 9 7 6 5 4 3 3 2 2 2 2 3 4 5 5 5 3 3 3 3 4 5 5 5 5 4 3 3 2 2 2 1 2 3 4 4 4
13 12 11 10 10 10 9 7 6 5 4 4 4 4 3 3 3 3 3 4 5 5 5 4 4 4 4 4 5 5 5 5 4 3 3 3 2 2 2 2 3 4 4
13 13 13 11 10 10 10 8 7 5 4 4 4 3 2 2 2 3 4 4 4 4 5 5 4 4 4 4 5 4 5 4 4 4 3 3 3 4 3 3 3 3 4
12 11 11 9 9 10 10 9 8 6 5 4 3 3 2 2 2 2 2 3 2 3 4 4 4 4 4 4 5 5 6 6 5 4 4 3 3 3 3 4 4 4 4
10 11 11 9 7 9 9 9 9 7 6 5 4 3 2 2 2 3 3 3 2 2 3 4 4 4 4 4 4 5 6 5 6 6 5 4 4 4 4 3 3 3 3
8 9 10 10 8 8 9 9 9 8 7 6 4 3 2 2 2 2 2 2 2 3 3 3 3 4 4 4 3 4 5 5 6 7 6 4 5 4 4 3 3 4 4
7 8 8 9 9 8 7 7 8 8 7 6 5 4 3 2 2 2 2 2 2 2 2 2 3 3 3 3 3 3 4 4 5 5 5 5 5 5 4 3 3 4 5
6 7 7 7 9 9 8 6 6 8 7 6 5 5 4 3 2 2 2 1 1 1 1 1 2 2 2 3 3 4 4 4 4 4 4 4 4 4 4 3 3 4 4
7 7 6 6 8 8 9 8 6 7 6 6 5 4 4 4 3 2 2 2 2 1 2 2 2 2 2 3 3 4 4 4 4 4 4 5 4 4 4 3 3 4 3
7 7 7 6 6 7 7 7 7 7 6 6 5 4 4 3 3 3 3 2 2 2 2 2 2 3 3 2 3 4 3 3 4 4 4 5 5 5 4 3 4 4 4
6 6 6 6 5 6 5 5 6 6 6 6 5 4 4 3 3 3 3 3 3 2 3 2 2 3 3 3 3 4 4 4 4 4 4 5 5 5 4 4 4 4 4
6 6 5 5 4 4 4 4 3 4 4 4 4 4 4 3 3 3 3 3 3 3 3 2 3 3 3 3 3 3 4 4 4 4 4 4 5 5 5 5 4 4 3
6 6 5 4 4 4 3 3 3 3 2 3 3 3 2 2 2 3 3 3 3 4 3 3 4 4 4 4 3 3 4 4 4 4 4 4 3 3 4 4 3 3 3
6 6 5 4 3 3 3 3 3 3 2 2 2 2 2 2 2 2 3 3 3 3 3 4 4 4 5 3 3 3 4 3 4 4 4 5 5 4 4 5 4 4 5
5 5 4 3 2 2 2 3 2 2 1 1 1 1 1 2 2 3 2 3 3 3 3 3 3 4 4 3 2 3 4 4 4 5 5 6 4 2 2 3 4 4 5
4 4 3 3 2 2 3 2 2 2 1 1 1 0 1 1 2 2 2 2 2 3 3 4 4 3 4 3 3 4 4 5 5 5 6 5 3 2 1 3 3 4 4
4 3 3 3 3 2 2 1 1 1 0 0 0 0 1 1 2 2 2 2 3 3 4 4 4 3 3 4 4 4 4 4 5 5 5 5 3 2 1 2 3 4 3
4 3 2 3 3 2 2 1 0 1 1 1 1 0 1 2 2 2 2 2 3 4 4 3 3 4 3 4 5 4 4 4 4 4 3 4 3 3 3 3 3 4 4
3 3 3 3 3 3 2 1 0 1 1 1 1 1 1 2 1 1 1 2 2 3 3 3 3 3 3 3 4 5 4 4 4 3 2 2 3 4 4 3 3 4 4
3 3 3 3 3 3 2 1 1 2 1 1 1 1 1 2 1 1 1 1 2 3 3 3 3 1 1 1 1 2 4 5 4 3 2 1 4 5 4 3 4 4 3
4 3 2 2 2 2 2 1 1 2 2 1 1 1 1 1 2 1 1 1 2 2 3 3 3 2 1 0 0 2 4 5 3 3 2 2 4 4 4 5 5 3 3
2 2 1 1 1 1 1 1 1 2 2 2 1 1 1 1 1 2 2 1 2 2 3 4 4 3 2 2 2 2 2 3 2 2 2 2 4 3 4 3 3 3 4
2 1 1 0 1 0 0 1 1 1 2 2 2 2 1 1 1 1 1 1 1 1 1 2 3 3 3 3 2 2 2 2 2 2 1 1 2 2 2 2 2 2 3
1 1 1 1 1 1 1 1 1 1 2 2 2 2 2 1 2 1 1 2 1 2 2 1 1 2 1 2 2 3 3 2 1 0 1 1 2 2 3 2 3 2 2
Wind_Direction
152 151 156 151 146 144 145 147 153 151 164 176 186 181 178 183 178 178 168 164 183 187 191 195 173 189 193 194 192 189 211 221 221 253 270 251 237 218 212 207 209 210 204
156 155 157 156 156 154 154 157 161 170 191 183 198 193 190 192 179 172 161 175 187 191 196 184 195 189 189 187 195 199 214 232 218 212 251 262 276 256 221 205 210 213 206
163 163 163 159 157 157 162 165 166 176 192 185 198 193 172 198 178 171 169 180 189 186 198 187 201 202 206 194 197 207 216 222 234 218 214 218 238 278 258 233 221 213 215
166 165 167 168 167 163 161 154 159 171 177 180 201 194 184 183 180 173 171 180 189 188 196 198 204 207 212 207 211 205 216 216 227 235 230 227 211 221 255 259 236 228 221
169 168 169 170 170 166 162 158 153 158 162 176 185 194 191 185 184 172 171 186 191 191 202 203 200 202 215 220 222 217 220 225 230 234 232 236 229 227 222 248 245 246 232
163 162 164 164 167 164 161 161 156 158 157 160 169 183 192 196 206 201 187 195 196 199 199 203 196 204 217 223 226 223 225 227 236 243 245 237 234 237 230 239 239 238 241
157 156 158 160 164 166 163 164 160 165 166 169 170 179 194 204 215 224 217 218 211 211 204 210 198 210 219 224 225 225 229 233 237 240 246 248 249 246 239 236 246 252 251
158 157 160 159 168 170 167 163 163 166 170 173 172 176 186 210 218 235 235 229 230 219 208 202 196 207 224 232 224 233 229 227 233 242 248 256 259 257 243 234 236 255 255
151 151 149 154 162 163 160 160 160 165 170 174 171 168 174 198 211 225 225 249 253 241 184 191 205 209 219 227 233 239 239 233 231 240 245 248 258 257 253 243 229 232 247
141 142 143 156 165 167 158 158 161 165 167 171 181 179 184 196 206 235 220 219 249 258 213 209 224 226 229 233 236 248 240 235 235 229 232 239 255 258 254 242 239 242 244
146 147 145 154 158 162 159 157 161 162 172 178 181 181 183 196 204 223 238 235 249 252 238 237 239 243 249 253 252 259 254 243 240 243 234 235 242 255 261 252 242 242 242
140 137 138 138 147 158 157 159 164 171 176 176 178 183 185 193 201 218 227 229 235 247 248 245 250 257 256 255 258 264 265 258 252 249 249 251 248 250 260 262 257 250 240
117 121 130 132 137 146 145 150 165 169 170 173 178 179 192 199 207 217 223 226 231 241 252 244 249 260 262 253 252 254 262 261 260 253 247 252 256 257 257 254 259 261 260
119 110 107 109 106 108 121 144 153 152 158 165 175 177 193 208 215 220 225 224 228 232 237 248 250 254 259 255 247 249 258 259 262 260 257 256 255 254 258 256 257 262 267
129 118 111 103 111 121 128 125 118 110 132 153 168 171 191 205 221 228 233 233 232 239 237 245 249 250 249 255 257 253 256 261 265 266 262 262 253 249 253 258 263 262 259
142 132 126 123 110 123 129 122 119 117 124 146 158 164 196 211 223 239 240 239 243 247 240 243 252 256 259 260 264 273 272 271 269 270 267 262 249 238 234 240 244 249 250
142 138 136 131 118 114 108 117 115 122 131 156 166 165 206 224 237 251 254 250 247 245 249 252 255 260 263 257 253 263 268 265 261 260 261 269 262 254 248 239 237 250 256
137 137 147 148 135 125 108 101 128 135 166 186 172 144 237 237 243 253 258 258 256 252 254 255 254 256 264 245 243 251 254 259 262 259 255 251 243 250 280 278 261 257 257
109 121 138 148 130 125 116 104 112 132 213 231 215 130 283 264 260 261 262 267 262 256 252 256 254 255 259 248 246 248 264 260 259 255 250 237 225 202 220 250 265 271 275
79 86 123 125 118 111 114 128 199 229 258 316 324 318 293 276 267 265 263 266 262 268 269 262 261 257 249 240 239 244 267 271 268 248 238 233 199 190 214 231 251 261 269
64 65 67 87 94 104 116 143 282 300 318 335 333 326 294 271 265 294 301 291 286 284 280 274 265 254 250 240 234 233 259 280 285 274 250 224 180 188 210 238 252 256 271
75 62 66 72 76 99 118 110 22 2 3 6 4 8 349 312 352 6 331 333 314 301 291 283 286 281 267 272 231 232 264 291 291 285 284 253 214 214 220 231 255 260 277
76 68 71 75 77 93 98 69 18 7 354 360 359 2 353 342 349 336 335 337 330 318 312 305 296 304 320 14 169 229 271 283 283 295 293 251 228 226 228 240 246 249 256
110 99 91 73 79 105 76 1 345 342 338 328 328 308 309 323 346 326 339 351 357 346 339 335 326 327 351 13 355 316 288 293 289 306 303 246 218 228 245 240 235 242 252
126 119 114 160 196 138 335 298 311 311 306 286 285 281 277 281 294 306 338 335 47 52 331 334 330 332 334 331 309 294 311 307 292 296 262 269 252 242 248 254 257 253 251
85 136 191 229 225 219 251 299 315 296 290 282 282 282 275 264 245 240 255 50 88 113 84 24 316 333 327 323 328 331 334 330 335 76 267 282 281 278 265 258 261 258 254
Height
1504 1507 1509 1511 1513 1514 1515 1517 1518 1519 1520 1522 1523 1525 1526 1527 1528 1530 1531 1532 1533 1534 1535 1537 1538 1540 1541 1542 1544 1545 1546 1547 1548 1549 1549 1549 1550 1551 1551 1552 1553 1554 1554
1502 1505 1507 1510 1511 1513 1514 1515 1517 1518 1519 1521 1522 1524 1525 1526 1527 1528 1529 1530 1531 1533 1534 1535 1537 1538 1540 1541 1542 1543 1544 1546 1547 1548 1548 1548 1549 1549 1549 1550 1551 1551 1552
1499 1502 1505 1507 1510 1511 1513 1514 1515 1517 1518 1519 1520 1522 1524 1525 1526 1527 1528 1529 1531 1532 1533 1534 1536 1537 1538 1539 1541 1542 1542 1543 1545 1546 1547 1547 1547 1547 1547 1548 1548 1549 1550
1496 1499 1502 1505 1508 1510 1512 1513 1514 1515 1516 1516 1518 1520 1522 1523 1525 1526 1527 1528 1529 1530 1532 1533 1534 1535 1536 1538 1539 1540 1541 1541 1542 1544 1545 1545 1545 1545 1545 1546 1546 1547 1547
1492 1496 1500 1503 1506 1508 1510 1511 1513 1514 1514 1515 1516 1519 1521 1522 1524 1525 1527 1527 1528 1529 1530 1531 1532 1533 1534 1535 1536 1537 1538 1539 1540 1541 1541 1542 1542 1543 1543 1543 1543 1544 1544
1489 1494 1498 1501 1504 1506 1508 1510 1511 1512 1514 1515 1516 1518 1519 1521 1523 1524 1525 1526 1527 1527 1528 1529 1530 1531 1532 1533 1533 1534 1535 1536 1537 1538 1538 1539 1540 1540 1540 1540 1540 1540 1541
1487 1491 1495 1499 1502 1504 1506 1508 1509 1511 1512 1514 1515 1517 1519 1520 1521 1522 1523 1524 1525 1526 1526 1527 1528 1529 1529 1530 1531 1531 1532 1533 1534 1534 1535 1536 1537 1537 1537 1538 1537 1537 1537
1485 1489 1493 1496 1500 1502 1505 1507 1508 1509 1511 1513 1514 1516 1517 1519 1519 1520 1522 1522 1523 1524 1524 1525 1526 1527 1527 1528 1528 1528 1529 1530 1530 1531 1532 1532 1533 1533 1534 1534 1535 1534 1534
1485 1488 1491 1495 1498 1501 1503 1505 1507 1508 1509 1511 1513 1514 1515 1517 1517 1518 1519 1520 1520 1522 1522 1523 1524 1524 1525 1525 1526 1526 1526 1526 1527 1527 1528 1529 1529 1530 1530 1531 1531 1532 1531
1485 1488 1490 1494 1497 1499 1501 1504 1505 1506 1508 1510 1511 1512 1513 1514 1516 1517 1517 1517 1518 1519 1520 1520 1521 1521 1522 1522 1523 1523 1523 1524 1524 1524 1524 1524 1525 1525 1526 1527 1527 1528 1528
1485 1488 1491 1493 1496 1498 1501 1501 1503 1505 1507 1508 1509 1511 1511 1512 1513 1514 1515 1515 1516 1516 1517 1517 1518 1519 1519 1519 1520 1520 1520 1520 1520 1521 1521 1521 1522 1522 1522 1522 1523 1523 1524
1484 1488 1490 1492 1494 1496 1500 1501 1503 1504 1505 1507 1508 1509 1510 1510 1511 1511 1512 1513 1513 1514 1514 1514 1515 1516 1516 1516 1516 1517 1517 1517 1517 1517 1518 1518 1518 1518 1518 1518 1518 1519 1519
1485 1488 1490 1492 1494 1496 1498 1500 1502 1503 1504 1505 1506 1507 1508 1508 1509 1509 1509 1510 1510 1511 1512 1512 1512 1512 1513 1513 1513 1514 1513 1513 1514 1514 1514 1514 1514 1514 1514 1514 1515 1515 1515
1486 1488 1490 1492 1494 1496 1498 1500 1501 1502 1503 1504 1504 1505 1505 1506 1506 1507 1507 1507 1507 1508 1508 1508 1509 1509 1509 1509 1510 1510 1510 1510 1510 1510 1510 1510 1510 1510 1510 1511 1511 1511 1511
1486 1488 1490 1492 1494 1495 1497 1499 1500 1500 1501 1502 1503 1503 1504 1504 1504 1504 1504 1504 1505 1505 1505 1505 1505 1506 1506 1506 1506 1506 1506 1506 1506 1506 1506 1506 1506 1506 1506 1507 1507 1507 1507
1486 1488 1490 1492 1494 1495 1496 1497 1498 1499 1499 1500 1501 1501 1501 1502 1502 1502 1502 1502 1502 1502 1502 1502 1502 1502 1502 1502 1502 1502 1502 1502 1501 1501 1501 1502 1502 1501 1502 1502 1502 1503 1503
1485 1487 1490 1491 1493 1494 1495 1495 1496 1497 1498 1498 1499 1499 1500 1500 1500 1500 1500 1499 1499 1499 1499 1499 1499 1498 1498 1498 1498 1498 1498 1497 1497 1497 1497 1497 1498 1497 1498 1498 1498 1498 1498
1484 1487 1489 1490 1492 1493 1494 1495 1495 1496 1496 1497 1497 1497 1497 1498 1497 1497 1497 1496 1496 1496 1495 1496 1495 1495 1495 1495 1495 1494 1494 1493 1493 1493 1493 1493 1493 1493 1493 1493 1493 1493 1493
1484 1486 1488 1489 1490 1491 1492 1493 1494 1495 1495 1495 1495 1495 1495 1495 1495 1494 1494 1494 1493 1493 1493 1492 1492 1491 1491 1491 1491 1491 1490 1489 1489 1489 1489 1489 1489 1489 1489 1489 1489 1489 1489
1484 1486 1487 1488 1489 1490 1491 1492 1493 1493 1493 1493 1493 1493 1493 1493 1492 1492 1491 1491 1491 1490 1490 1489 1489 1488 1488 1488 1487 1487 1486 1485 1485 1485 1485 1485 1485 1485 1485 1485 1484 1484 1484
1484 1486 1486 1487 1488 1489 1489 1490 1491 1491 1491 1492 1491 1491 1491 1491 1490 1490 1489 1489 1488 1488 1487 1486 1486 1485 1485 1484 1484 1484 1483 1482 1482 1482 1481 1481 1481 1481 1481 1481 1480 1480 1480
1484 1485 1486 1487 1487 1487 1488 1488 1489 1489 1489 1489 1489 1488 1488 1488 1488 1487 1487 1486 1486 1486 1485 1484 1483 1483 1482 1481 1480 1480 1480 1479 1478 1478 1478 1478 1477 1477 1477 1476 1476 1476 1476
1483 1484 1485 1486 1486 1486 1486 1486 1486 1486 1486 1486 1486 1486 1486 1486 1486 1485 1485 1484 1484 1484 1483 1482 1481 1480 1479 1478 1477 1477 1476 1475 1475 1474 1474 1474 1474 1473 1473 1473 1472 1472 1471
1483 1484 1484 1484 1485 1485 1485 1484 1484 1484 1484 1484 1484 1484 1483 1483 1483 1483 1483 1483 1482 1482 1481 1480 1479 1478 1477 1475 1474 1473 1472 1471 1471 1470 1470 1470 1470 1470 1469 1469 1468 1467 1467
1481 1482 1483 1483 1483 1483 1482 1482 1482 1482 1482 1482 1481 1481 1481 1481 1481 1481 1481 1480 1480 1479 1479 1478 1477 1476 1474 1473 1472 1470 1469 1468 1468 1467 1467 1466 1466 1465 1465 1465 1464 1463 1463
1480 1480 1481 1481 1481 1480 1480 1480 1480 1480 1479 1479 1479 1479 1479 1479 1479 1479 1479 1478 1478 1477 1476 1476 1475 1473 1473 1471 1469 1468 1467 1466 1465 1465 1464 1463 1463 1463 1462 1461 1461 1460 1459